Latest Coastal Weather Observations for Spring Bay

IDT60701

Issued at 4:51 am EDT Monday 22 December 2014 (issued every 10 minutes, with the page automatically refreshed every 10 minutes)

About coastal observations | Map of coastal stations | Coastal observations for TAS | Marine services | Other Formats
Station Details ID: 092133 Name: SPRING BAY NTC AWS Lat: -42.55 Lon: 147.93 Height: 0.0 m
Data from the previous 72 hours. | See also: Recent months for locations in Tasmania
Date/Time
EDT
Temp

°C
Wind Pressure Rain
since 9am
mm
Weather Cloud Vis
km
Sea
Height
m
Swell
Dir
 
Speed
knots
Gust
knots
hPa Trend Height
m
Period
s
Dir
22/04:30am 11.3 - - - 1014.2 - - - - - - - - -
22/04:00am 12.5 - - - 1013.9 - - - - - - - - -
22/03:30am 12.0 - - - 1013.9 - - - - - - - - -
22/03:00am 12.6 - - - 1013.9 - - - - - - - - -
22/02:30am 12.8 - - - 1013.9 - - - - - - - - -
22/02:00am 13.7 - - - 1013.9 - - - - - - - - -
22/01:30am 13.5 - - - 1014.0 - - - - - - - - -
22/01:00am 14.5 - - - 1013.9 - - - - - - - - -
22/12:30am 14.8 - - - 1013.7 - - - - - - - - -
22/12:00am 15.1 - - - 1013.7 - - - - - - - - -
 
Date/Time
EDT
Temp

°C
Wind Pressure Rain
since 9am
mm
Weather Cloud Vis
km
Sea
Height
m
Swell
Dir
 
Speed
knots
Gust
knots
hPa Trend Height
m
Period
s
Dir
21/11:30pm 15.6 - - - 1013.3 - - - - - - - - -
21/11:00pm 16.0 - - - 1013.3 - - - - - - - - -
21/10:30pm 16.0 - - - 1013.3 - - - - - - - - -
21/10:00pm 16.4 - - - 1012.8 - - - - - - - - -
21/09:30pm 16.6 - - - 1012.0 - - - - - - - - -
21/09:00pm 16.9 - - - 1011.7 - - - - - - - - -
21/08:30pm 17.3 - - - 1011.0 - - - - - - - - -
21/08:00pm 17.2 - - - 1010.4 - - - - - - - - -
21/07:30pm 18.2 - - - 1009.8 - - - - - - - - -
21/07:00pm 19.3 - - - 1009.4 - - - - - - - - -
21/06:30pm 19.8 - - - 1009.1 - - - - - - - - -
21/06:00pm 19.3 - - - 1008.8 - - - - - - - - -
21/05:30pm 19.3 - - - 1008.5 - - - - - - - - -
21/05:00pm 18.5 - - - 1009.0 - - - - - - - - -
21/04:30pm 18.5 - - - 1008.7 - - - - - - - - -
21/04:00pm 20.0 - - - 1009.0 - - - - - - - - -
21/03:30pm 19.7 - - - 1009.2 - - - - - - - - -
21/03:00pm 19.5 - - - 1009.2 - - - - - - - - -
21/02:30pm 20.4 - - - 1009.7 - - - - - - - - -
21/02:00pm 20.0 - - - 1010.2 - - - - - - - - -
21/01:30pm 19.9 - - - 1010.3 - - - - - - - - -
21/01:00pm 20.1 - - - 1010.2 - - - - - - - - -
21/12:30pm 20.1 - - - 1010.9 - - - - - - - - -
21/12:00pm 18.9 - - - 1011.2 - - - - - - - - -
21/11:30am 18.9 - - - 1011.8 - - - - - - - - -
21/11:00am 19.0 - - - 1012.2 - - - - - - - - -
21/10:30am 18.7 - - - 1013.1 - - - - - - - - -
21/10:00am 17.8 - - - 1013.4 - - - - - - - - -
21/09:30am 16.9 - - - 1013.8 - - - - - - - - -
21/09:00am 16.3 - - - 1014.1 - - - - - - - - -
21/08:30am 15.8 - - - 1014.1 - - - - - - - - -
21/08:00am 15.1 - - - 1014.1 - - - - - - - - -
21/07:30am 14.5 - - - 1014.4 - - - - - - - - -
21/07:00am 14.1 - - - 1014.7 - - - - - - - - -
21/06:30am 13.9 - - - 1015.3 - - - - - - - - -
21/06:00am 13.8 - - - 1015.3 - - - - - - - - -
21/05:30am 13.5 - - - 1014.9 - - - - - - - - -
21/05:00am 13.0 - - - 1014.4 - - - - - - - - -
21/04:30am 13.0 - - - 1014.2 - - - - - - - - -
21/04:00am 14.0 - - - 1014.2 - - - - - - - - -
21/03:30am 14.2 - - - 1014.2 - - - - - - - - -
21/03:00am 14.0 - - - 1014.6 - - - - - - - - -
21/02:30am 14.0 - - - 1014.9 - - - - - - - - -
21/02:00am 14.1 - - - 1015.1 - - - - - - - - -
21/01:30am 14.2 - - - 1015.4 - - - - - - - - -
21/01:00am 14.2 - - - 1015.7 - - - - - - - - -
21/12:30am 14.3 - - - 1015.8 - - - - - - - - -
21/12:00am 14.4 - - - 1016.0 - - - - - - - - -
 
Date/Time
EDT
Temp

°C
Wind Pressure Rain
since 9am
mm
Weather Cloud Vis
km
Sea
Height
m
Swell
Dir
 
Speed
knots
Gust
knots
hPa Trend Height
m
Period
s
Dir
20/11:30pm 14.3 - - - 1016.0 - - - - - - - - -
20/11:00pm 14.4 - - - 1016.0 - - - - - - - - -
20/10:30pm 14.4 - - - 1016.1 - - - - - - - - -
20/10:00pm 14.5 - - - 1016.2 - - - - - - - - -
20/09:30pm 14.8 - - - 1015.8 - - - - - - - - -
20/09:00pm 15.1 - - - 1015.5 - - - - - - - - -
20/08:30pm 15.2 - - - 1015.3 - - - - - - - - -
20/08:00pm 15.8 - - - 1014.9 - - - - - - - - -
20/07:30pm 15.9 - - - 1014.6 - - - - - - - - -
20/07:00pm 16.6 - - - 1013.8 - - - - - - - - -
20/06:30pm 16.8 - - - 1013.4 - - - - - - - - -
20/06:00pm 17.3 - - - 1013.1 - - - - - - - - -
20/05:30pm 17.3 - - - 1012.9 - - - - - - - - -
20/05:00pm 17.8 - - - 1012.8 - - - - - - - - -
20/04:30pm 18.2 - - - 1012.6 - - - - - - - - -
20/04:00pm 18.0 - - - 1012.2 - - - - - - - - -
20/03:30pm 17.8 - - - 1012.0 - - - - - - - - -
20/03:00pm 17.5 - - - 1012.0 - - - - - - - - -
20/02:30pm 18.2 - - - 1011.9 - - - - - - - - -
20/02:00pm 18.8 - - - 1011.7 - - - - - - - - -
20/01:30pm 19.6 - - - 1011.6 - - - - - - - - -
20/01:00pm 19.5 - - - 1011.6 - - - - - - - - -
20/12:30pm 18.3 - - - 1011.6 - - - - - - - - -
20/12:00pm 19.1 - - - 1011.5 - - - - - - - - -
20/11:30am 17.0 - - - 1011.6 - - - - - - - - -
20/11:00am 16.6 - - - 1011.6 - - - - - - - - -
20/10:30am 18.0 - - - 1011.2 - - - - - - - - -
20/10:00am 16.2 - - - 1011.4 - - - - - - - - -
20/09:30am 17.4 - - - 1011.2 - - - - - - - - -
20/09:00am 17.4 - - - 1011.2 - - - - - - - - -
20/08:30am 16.6 - - - 1011.2 - - - - - - - - -
20/08:00am 15.2 - - - 1011.0 - - - - - - - - -
20/07:30am 14.6 - - - 1010.9 - - - - - - - - -
20/07:00am 13.9 - - - 1010.8 - - - - - - - - -
20/06:30am 13.6 - - - 1010.6 - - - - - - - - -
20/06:00am 13.8 - - - 1010.5 - - - - - - - - -
20/05:30am 14.1 - - - 1010.4 - - - - - - - - -
20/05:00am 14.3 - - - 1010.3 - - - - - - - - -
20/04:30am 14.5 - - - 1010.3 - - - - - - - - -
20/04:00am 13.8 - - - 1010.5 - - - - - - - - -
20/03:30am 13.9 - - - 1010.7 - - - - - - - - -
20/03:00am 13.8 - - - 1011.2 - - - - - - - - -
20/02:30am 14.2 - - - 1011.5 - - - - - - - - -
20/02:00am 13.5 - - - 1011.9 - - - - - - - - -
20/01:30am 14.0 - - - 1012.5 - - - - - - - - -
20/01:00am 13.8 - - - 1012.8 - - - - - - - - -
20/12:30am 13.9 - - - 1013.1 - - - - - - - - -
20/12:00am 13.9 - - - 1013.6 - - - - - - - - -
 
Date/Time
EDT
Temp

°C
Wind Pressure Rain
since 9am
mm
Weather Cloud Vis
km
Sea
Height
m
Swell
Dir
 
Speed
knots
Gust
knots
hPa Trend Height
m
Period
s
Dir
19/11:30pm 13.9 - - - 1013.8 - - - - - - - - -
19/11:00pm 13.7 - - - 1014.1 - - - - - - - - -
19/10:30pm 13.8 - - - 1014.3 - - - - - - - - -
19/10:00pm 13.5 - - - 1014.5 - - - - - - - - -
19/09:30pm 13.6 - - - 1014.4 - - - - - - - - -
19/09:00pm 13.6 - - - 1014.0 - - - - - - - - -
19/08:30pm 13.7 - - - 1014.0 - - - - - - - - -
19/08:00pm 14.0 - - - 1014.2 - - - - - - - - -
19/07:30pm 14.2 - - - 1013.7 - - - - - - - - -
19/07:00pm 14.3 - - - 1013.6 - - - - - - - - -
19/06:30pm 14.6 - - - 1013.2 - - - - - - - - -
19/06:00pm 14.6 - - - 1013.1 - - - - - - - - -
19/05:30pm 14.9 - - - 1012.9 - - - - - - - - -
19/05:00pm 14.8 - - - 1012.7 - - - - - - - - -
19/04:30pm 14.9 - - - 1012.6 - - - - - - - - -
19/04:00pm 14.9 - - - 1012.4 - - - - - - - - -

Other Formats:

Comma delimited format used in spreadsheet applications
http://www.bom.gov.au/fwo/IDT60701/IDT60701.95987.axf

JavaScript Object Notation format (JSON) in row-major order
http://www.bom.gov.au/fwo/IDT60701/IDT60701.95987.json